sat.trackr.live / text

‹ back to catalog

STARLINK-35347

NORAD 65907 · 2025-224AB

PAYLOAD ACTIVE UNKNOWN

§ Identity

Operator
Country
US
Launch date
2025-10-07
Launch site
AFETR
Launch vehicle
Mass (kg)
RCS (m²)

Purposes: comms

External: N2YO · Heavens-Above · Gunter

§ Orbital elements

Epoch: 2026-05-25T01:42:40.701888Z

Period
93.85 min
Inclination
53.1599°
Eccentricity
0.0000996
Mean motion
15.34395790 rev/d
Perigee alt
462.0 km
Apogee alt
463.4 km
Semi-major
6,840.9 km
B*
4.3803e-4
RAAN
15.4929°
Arg perigee
79.2567°
Mean anomaly
280.8548°
Rev number
3,656

§ Raw data

STARLINK-353471 65907U 25224AB  26145.07130442  .00014450  00000+0  43803-3 0  99952 65907  53.1599  15.4929 0000996  79.2567 280.8548 15.34395790 36562

JSON: /api/v1/satellites/65907 · /tle

For live sub-satellite position, see the globe view (requires WebGL).

§ Visibility from observer

Set your observer location to see the next 7 days of passes ≥ 10°. The values pass through the URL so the page stays shareable.

No JS? Fill the form by hand. The geolocation button needs JavaScript.